Location: Artiguedieu
(43.5000°N, 0.5454°E)
Time: 12:15:38
(UTC+00:00)

USA 81 - Pass Details

Date: 06 December 2020
Orbit: 783 x 791 km, 85.0° (Epoch: 30 November)

Event Time Altitude Azimuth Distance (km) Brightness Sun altitude
Rises 06:01:56 0° 195° (SSW) 3,256 7.3 -13.1°
Reaches altitude 10° 06:04:19 10° 199° (SSW) 2,332 6.5 -12.7°
Maximum altitude 06:09:27 56° 278° (W) 927 4.1 -11.8°
Drops below altitude 10° 06:14:38 10° 357° (N) 2,352 6.3 -10.9°
Sets 06:17:04 0° 1° (N) 3,285 7.1 -10.5°
